Bournemouth, United Kingdom

8:11 AM GMT on February 20, 2018 (GMT +0000)
Bournemouth

Weather History for EGHH - October, 2012

Change the Weather History Date:

Wednesday, October 17, 2012

  Actual Average Record
Temperature  
Mean Temperature 56 °F -  
Max Temperature 61 °F 54 °F 66 °F (2001)
Min Temperature 50 °F 41 °F 28 °F (2010)
Degree Days  
Heating Degree Days 10    
Growing Degree Days 6 (Base 50)    
Moisture  
Dew Point 51 °F    
Average Humidity 80    
Maximum Humidity 94    
Minimum Humidity 58    
Precipitation  
Precipitation 0.12 in 0.11 in - ()
Sea Level Pressure  
Sea Level Pressure 29.42 in    
Wind  
Wind Speed 14 mph ()    
Max Wind Speed 24 mph    
Max Gust Speed 37 mph    
Visibility 6.6 miles    
Events Rain , Thunderstorm    
Averages and records for this station are not official NWS values.
T = Trace of Precipitation, MM = Missing Value Source: Averaged Metar Reports

Daily Weather History Graph

Daily Weather History Graph

Search for Another Location

Airport or City:

Trip Planner

Search our weather history database for the weather conditions in past years. The results will help you decide how hot, cold, wet, or windy it might be!

Date:

Astronomy

Oct. 17, 2012 Rise Set
Actual Time 7:34 AM BST 6:10 PM BST
Civil Twilight 7:00 AM BST 6:43 PM BST
Nautical Twilight 6:22 AM BST 7:21 PM BST
Astronomical Twilight 5:44 AM BST 7:59 PM BST
Moon 10:10 AM BST (10/17) 7:12 PM BST (10/17)
Length of Visible Light 11h 42m
Length of Day
10h 36m
Waxing Crescent, 6% of the Moon is Illuminated
Oct 17
Waxing Crescent
Oct 22
First Quarter
Oct 29
Full
Nov 7
Last Quarter
Nov 13
New

Hourly Weather History & Observations

Time (BST) Temp. Dew Point Humidity Pressure Visibility Wind Dir Wind Speed Gust Speed Precip Events Conditions
12:50 AM 57 °F 50 °F 71% 29.48 in 11 mi SSE 17.3 mph - -   Overcast
1:20 AM 55.4 °F 51.8 °F 88% 29.44 in 5.0 mi SSE 18.4 mph - N/A Rain Rain
1:50 AM 55.4 °F 53.6 °F 94% 29.39 in 3.1 mi SE 20.7 mph - N/A Rain Rain
2:50 AM 55.4 °F 53.6 °F 94% 29.36 in 3.7 mi SSE 24.2 mph 35.7 mph N/A Rain Rain
4:50 AM 57.2 °F 55.4 °F 94% 29.30 in 6.2 mi SSW 16.1 mph - N/A Rain Rain
5:50 AM 55.4 °F 51.8 °F 88% 29.33 in 6.2 mi WSW 13.8 mph - N/A   Partly Cloudy
6:20 AM 55.4 °F 51.8 °F 88% 29.36 in 6.2 mi SW 10.4 mph - N/A   Partly Cloudy
6:50 AM 56 °F 51 °F 77% 29.37 in 10 mi SW 12.7 mph - -  
6:50 AM 55.4 °F 51.8 °F 88% 29.36 in 6.2 mi SW 12.7 mph - N/A   Scattered Clouds
7:20 AM 55.4 °F 50.0 °F 82% 29.36 in 6.2 mi SW 10.4 mph - N/A   Scattered Clouds
7:50 AM 55.4 °F 50.0 °F 82% 29.39 in 6.2 mi SW 13.8 mph - N/A   Scattered Clouds
8:20 AM 55.4 °F 50.0 °F 82% 29.39 in 6.2 mi SSW 12.7 mph - N/A   Scattered Clouds
8:50 AM 57.2 °F 50.0 °F 77% 29.39 in 6.2 mi SW 12.7 mph - N/A   Scattered Clouds
9:20 AM 57.2 °F 50.0 °F 77% 29.42 in 6.2 mi SW 12.7 mph - N/A   Scattered Clouds
9:50 AM 59.0 °F 48.2 °F 67% 29.42 in 6.2 mi SW 15.0 mph - N/A   Scattered Clouds
10:20 AM 59.0 °F 50.0 °F 72% 29.42 in 6.2 mi SW 15.0 mph 26.5 mph N/A   Scattered Clouds
10:50 AM 59.0 °F 50.0 °F 72% 29.44 in 6.2 mi SW 16.1 mph 27.6 mph N/A   Scattered Clouds
11:20 AM 60.8 °F 50.0 °F 68% 29.44 in 6.2 mi SSW 19.6 mph 31.1 mph N/A   Scattered Clouds
11:50 AM 60.8 °F 50.0 °F 68% 29.44 in 6.2 mi SW 19.6 mph 32.2 mph N/A   Scattered Clouds
12:20 PM 60.8 °F 50.0 °F 68% 29.44 in 6.2 mi SSW 21.9 mph 33.4 mph N/A   Scattered Clouds
12:50 PM 60 °F 49 °F 58% 29.47 in 13 mi SSW 21.9 mph - -   Scattered Clouds
12:50 PM 59.0 °F 48.2 °F 67% 29.44 in 6.2 mi SSW 20.7 mph 36.8 mph N/A   Scattered Clouds
1:20 PM 62.6 °F 48.2 °F 59% 29.44 in 6.2 mi SSW 18.4 mph 29.9 mph N/A   Scattered Clouds
1:50 PM 60.8 °F 50.0 °F 68% 29.44 in 6.2 mi SSW 18.4 mph 29.9 mph N/A   Scattered Clouds
2:20 PM 60.8 °F 50.0 °F 68% 29.44 in 6.2 mi SSW 19.6 mph - N/A   Scattered Clouds
2:50 PM 59.0 °F 50.0 °F 72% 29.44 in 6.2 mi SW 15.0 mph 27.6 mph N/A Rain Light Rain Showers
3:20 PM 55.4 °F 50.0 °F 82% 29.44 in 6.2 mi WSW 11.5 mph - N/A   Scattered Clouds
3:50 PM 58 °F 49 °F 65% 29.46 in 12 mi SSW 16.1 mph - - Rain Light Rain
3:50 PM 59.0 °F 50.0 °F 72% 29.44 in 6.2 mi SSW 15.0 mph - N/A   Scattered Clouds
4:20 PM 55.4 °F 50.0 °F 82% 29.44 in 6.2 mi SSW 10.4 mph - N/A   Scattered Clouds
4:50 PM 57.2 °F 53.6 °F 88% 29.44 in 6.2 mi South 6.9 mph - N/A   Scattered Clouds
5:20 PM 57.2 °F 51.8 °F 82% 29.44 in 6.2 mi South 10.4 mph - N/A Thunderstorm Scattered Clouds
5:50 PM 55.4 °F 51.8 °F 88% 29.44 in 6.2 mi SSW 8.1 mph - N/A   Mostly Cloudy
6:20 PM 55.4 °F 51.8 °F 88% 29.44 in 6.2 mi SSW 9.2 mph - N/A Rain Light Rain Showers
6:50 PM 54 °F 51 °F 84% 29.44 in 13 mi South 5.8 mph - - Rain Rain
6:50 PM 55.4 °F 51.8 °F 88% 29.44 in 6.2 mi South 5.8 mph - N/A Rain Light Rain Showers
7:20 PM 55.4 °F 51.8 °F 88% 29.44 in 6.2 mi South 4.6 mph - N/A Thunderstorm Mostly Cloudy
7:50 PM 59.0 °F 53.6 °F 82% 29.42 in 6.2 mi South 12.7 mph - N/A   Mostly Cloudy
8:20 PM 57.2 °F 51.8 °F 82% 29.42 in 6.2 mi South 18.4 mph 31.1 mph N/A   Mostly Cloudy
8:50 PM 53.6 °F 50.0 °F 88% 29.44 in 5.0 mi South 17.3 mph - N/A Rain Rain
9:20 PM 57.2 °F 53.6 °F 88% 29.42 in 5.0 mi South 16.1 mph - N/A Rain Rain
9:50 PM 57 °F 54 °F 85% 29.44 in 11 mi SSW 16.1 mph - - Rain Rain
9:50 PM 57.2 °F 53.6 °F 88% 29.42 in 6.2 mi South 16.1 mph - N/A Rain , Thunderstorm Light Rain
10:20 PM 55.4 °F 53.6 °F 94% 29.44 in 2.8 mi South 18.4 mph 29.9 mph N/A Rain Rain Showers
10:50 PM 53.6 °F 50.0 °F 88% 29.44 in 6.2 mi South 9.2 mph - N/A   Mostly Cloudy
11:20 PM 57.2 °F 53.6 °F 88% 29.42 in 6.2 mi South 18.4 mph 29.9 mph N/A Rain Rain Showers
11:50 PM 57.2 °F 53.6 °F 88% 29.42 in 6.2 mi South 19.6 mph - N/A   Scattered Clouds